W5XO-8 Weather Reports


time (UTC)temp
C
wind
direction
speed
KPH
gust
KPH
rain 1hr
cm
rain 24hr
cm
rain mn
cm
humidity
%
barometer
mb
20210518204635 23 5 1.6 0.0 0.00 0.00 0.00 83 1005.8
20210518204046 23 355 3.2 0.0 0.00 0.00 0.00 84 1005.8
20210518203553 23 5 3.2 0.0 0.00 0.00 0.00 84 1005.8
20210518203147 22 330 4.8 0.0 0.00 0.00 0.00 84 1006.3
20210518202600 23 333 3.2 0.0 0.00 0.00 0.00 84 1006.3
20210518202004 22 355 1.6 0.0 0.00 0.00 0.00 84 1006.2
20210518201508 22 326 0.0 0.0 0.00 0.00 0.00 85 1006.2
20210518201025 22 340 3.2 0.0 0.00 0.00 0.00 85 1006.2
20210518200241 23 341 3.2 0.0 0.00 0.00 0.00 84 1005.9
20210518195506 23 13 9.7 0.0 0.00 0.00 0.00 84 1005.9
20210518195025 23 9 9.7 0.0 0.00 0.00 0.00 82 1006.1
20210518194538 23 345 6.4 0.0 0.00 0.00 0.00 83 1006.1
20210518194036 23 328 6.4 0.0 0.00 0.00 0.00 83 1006.1
20210518193530 23 327 6.4 0.0 0.00 0.00 0.00 83 1006.3
20210518193051 24 327 6.4 0.0 0.00 0.00 0.00 84 1006.3
20210518192540 23 282 4.8 0.0 0.00 0.00 0.00 83 1006.3
20210518192046 24 321 1.6 0.0 0.00 0.00 0.00 82 1006.3
20210518191635 25 308 1.6 0.0 0.00 0.00 0.00 80 1006.3
20210518191134 26 305 0.0 0.0 0.00 0.00 0.00 77 1006.3
20210518190609 26 51 0.0 0.0 0.00 0.00 0.00 75 1006.3
20210518190139 27 64 0.0 0.0 0.00 0.00 0.00 74 1006.3
20210518185545 27 152 0.0 0.0 0.00 0.00 0.00 74 1006.3
20210518185115 26 155 0.0 0.0 0.00 0.00 0.00 74 1006.3
20210518184620 26 160 0.0 0.0 0.00 0.00 0.00 75 1006.0
20210518184100 26 232 0.0 0.0 0.00 0.00 0.00 75 1006.0
20210518183017 26 324 0.0 0.0 0.00 0.00 0.00 78 1006.0
20210518182534 26 327 0.0 0.0 0.00 0.00 0.00 78 1006.0
20210518182009 26 53 0.0 0.0 0.00 0.00 0.00 80 1006.4
20210518181510 25 53 0.0 0.0 0.00 0.00 0.00 79 1006.4
20210518181051 25 57 0.0 0.0 0.00 0.00 0.00 81 1006.4
20210518180023 25 79 0.0 0.0 0.00 0.00 0.00 80 1006.7
20210518175517 25 96 0.0 0.0 0.00 0.00 0.00 80 1006.7
20210518175028 25 168 0.0 0.0 0.00 0.00 0.00 80 1006.6
20210518174522 25 164 0.0 0.0 0.00 0.00 0.00 81 1006.6
20210518174041 25 164 0.0 0.0 0.00 0.00 0.00 82 1006.6
20210518173539 25 128 0.0 0.0 0.00 0.00 0.00 82 1005.9
20210518173052 25 153 0.0 0.0 0.00 0.00 0.00 83 1005.9
20210518172605 24 138 0.0 0.0 0.00 0.00 0.00 82 1005.9
20210518172043 24 130 1.6 0.0 0.00 0.00 0.00 81 1005.9
20210518171633 24 130 3.2 0.0 0.00 0.00 0.00 81 1005.9
20210518171102 24 147 3.2 0.0 0.00 0.00 0.00 82 1005.9
20210518170554 24 113 6.4 0.0 0.00 0.00 0.00 81 1005.9
20210518170210 25 136 4.8 0.0 0.00 0.00 0.00 82 1005.8
20210518165558 24 95 3.2 0.0 0.00 0.00 0.00 82 1005.8
20210518165050 24 115 3.2 0.0 0.00 0.00 0.00 83 1005.8
20210518164745 24 132 6.4 0.0 0.00 0.00 0.00 84 1006.3
20210518164100 24 103 6.4 0.0 0.00 0.00 0.00 83 1006.3
20210518163007 23 121 0.0 0.0 0.00 0.00 0.00 82 1006.6
20210518162510 23 134 0.0 0.0 0.00 0.00 0.00 83 1006.6
20210518162019 23 159 0.0 0.0 0.00 0.00 0.00 83 1006.3
20210518161532 23 123 0.0 0.0 0.00 0.00 0.00 82 1006.3
20210518161041 23 89 0.0 0.0 0.00 0.00 0.00 83 1006.3
20210518160509 23 123 0.0 0.0 0.00 0.00 0.00 83 1005.8
20210518160010 23 136 1.6 0.0 0.00 0.00 0.00 84 1005.8
20210518155524 22 95 3.2 0.0 0.00 0.00 0.00 83 1005.8
20210518155029 22 92 8.0 0.0 0.00 0.00 0.00 82 1005.2
20210518154648 22 98 11.3 0.0 0.00 0.00 0.00 83 1005.2
20210518154049 22 88 14.5 0.0 0.00 0.00 0.00 81 1005.2
20210518153544 22 87 16.1 0.0 0.00 0.00 0.00 82 1005.2
20210518153225 22 78 20.9 0.0 0.00 0.00 0.00 82 1004.4
20210518152552 22 79 22.5 0.0 0.00 0.00 0.00 82 1004.4
20210518152059 22 101 16.1 0.0 0.00 0.00 0.00 81 1004.4
20210518151003 22 81 11.3 0.0 0.00 0.00 0.00 83 1004.7
20210518150219 22 57 14.5 0.0 0.00 0.00 0.00 85 1004.9
20210518145644 22 68 17.7 0.0 0.00 0.00 0.00 83 1004.9
20210518145110 22 79 16.1 0.0 0.00 0.00 0.00 83 1004.9
20210518144502 22 86 12.9 0.0 0.00 0.00 0.00 84 1005.2
20210518144008 22 81 11.3 0.0 0.00 0.00 0.00 84 1005.2
20210518143532 22 117 9.7 0.0 0.00 0.00 0.00 84 1005.2
20210518143055 21 100 4.8 0.0 0.00 0.00 0.00 86 1005.2
20210518142529 21 93 4.8 0.0 0.00 0.00 0.00 86 1005.2
20210518142046 21 73 8.0 0.0 0.00 0.00 0.00 86 1005.2
20210518141555 21 113 8.0 0.0 0.00 0.00 0.00 87 1005.4
20210518141045 21 111 8.0 0.0 0.00 0.00 0.00 87 1005.4
20210518140515 21 102 6.4 0.0 0.00 0.00 0.00 86 1005.2
20210518140114 21 83 8.0 0.0 0.00 0.00 0.00 86 1005.2
20210518135541 21 91 6.4 0.0 0.00 0.00 0.00 85 1005.2
20210518135036 21 109 6.4 0.0 0.00 0.00 0.00 86 1005.2
20210518134623 21 98 8.0 0.0 0.00 0.00 0.00 85 1005.0
20210518134108 21 77 8.0 0.0 0.00 0.00 0.00 85 1005.0
20210518133548 21 105 8.0 0.0 0.00 0.00 0.00 86 1005.0
20210518133201 21 60 6.4 0.0 0.00 0.00 0.00 87 1004.5
20210518132554 20 94 6.4 0.0 0.00 0.00 0.00 88 1004.5
20210518132059 20 71 8.0 0.0 0.00 0.00 0.00 88 1004.5
20210518130209 20 34 6.4 0.0 0.00 0.00 0.00 90 1004.8
20210518125551 20 89 6.4 0.0 0.00 0.00 0.00 90 1004.8
20210518125057 19 52 9.7 0.0 0.00 0.00 0.00 91 1004.8
20210518124736 19 61 9.7 0.0 0.00 0.00 0.00 91 1005.2
20210518124006 19 90 6.4 0.0 0.00 0.00 0.00 90 1005.2
20210518123511 19 94 3.2 0.0 0.00 0.00 0.00 91 1005.5
20210518123013 19 92 1.6 0.0 0.00 0.00 0.00 90 1005.5
20210518122538 19 89 1.6 0.0 0.00 0.00 0.00 90 1005.5
20210518122031 19 83 3.2 0.0 0.00 0.00 0.00 91 1005.5
20210518121551 19 84 3.2 0.0 0.00 0.00 0.00 91 1005.5
20210518121100 19 83 1.6 0.0 0.00 0.00 0.00 91 1005.5
20210518120511 19 80 1.6 0.0 0.00 0.00 0.00 91 1005.2
20210518120101 19 76 1.6 0.0 0.00 0.00 0.00 91 1005.2
20210518115529 18 86 0.0 0.0 0.00 0.00 0.00 91 1005.2
20210518115037 18 55 0.0 0.0 0.00 0.00 0.00 91 1005.3
20210518114558 18 76 0.0 0.0 0.00 0.00 0.00 91 1005.3
20210518114039 18 63 1.6 0.0 0.00 0.00 0.00 91 1005.3
20210518113541 18 65 0.0 0.0 0.00 0.00 0.00 90 1005.3
20210518113130 18 72 1.6 0.0 0.00 0.00 0.00 90 1005.3
20210518112553 18 67 3.2 0.0 0.00 0.00 0.00 90 1005.3
20210518112105 18 62 3.2 0.0 0.00 0.00 0.00 90 1005.3
20210518111506 18 84 1.6 0.0 0.00 0.00 0.00 90 1005.6
20210518111007 18 74 1.6 0.0 0.00 0.00 0.00 90 1005.6
20210518110159 18 65 6.4 0.0 0.00 0.00 0.00 90 1005.4
20210518105006 18 63 8.0 0.0 0.00 0.00 0.00 92 1005.7
20210518104510 18 59 6.4 0.0 0.00 0.00 0.00 92 1005.7
20210518104011 18 64 11.3 0.0 0.00 0.00 0.00 93 1005.7
20210518103526 18 64 11.3 0.0 0.00 0.00 0.00 93 1005.9
20210518103102 18 69 14.5 0.0 0.00 0.00 0.00 93 1005.9
20210518102533 18 69 12.9 0.0 0.00 0.00 0.00 93 1005.9
20210518102039 18 61 12.9 0.0 0.00 0.00 0.00 93 1005.9
20210518101547 19 63 14.5 0.0 0.00 0.00 0.00 93 1006.2
20210518101047 19 61 12.9 0.0 0.00 0.00 0.00 93 1006.2
20210518100517 19 60 11.3 0.0 0.00 0.00 0.00 93 1006.5
20210518100145 19 59 12.9 0.0 0.00 0.00 0.00 93 1006.5
20210518095536 19 53 11.3 0.0 0.00 0.00 0.00 93 1006.5
20210518095042 19 36 4.8 0.0 0.00 0.00 0.00 93 1006.5
20210518094557 19 59 1.6 0.0 0.00 0.00 0.00 94 1007.0
20210518094050 19 47 1.6 0.0 0.00 0.00 0.00 94 1007.0
20210518093606 19 73 0.0 0.0 0.00 0.00 0.00 94 1007.0
20210518093156 19 28 1.6 0.0 0.00 0.00 0.00 94 1007.3
20210518092001 19 26 1.6 0.0 0.00 0.00 0.00 95 1007.3
20210518091533 19 50 0.0 0.0 0.00 0.00 0.00 95 1007.3
20210518091011 19 67 0.0 0.0 0.00 0.00 0.00 95 1007.3
20210518085503 18 27 1.6 0.0 0.00 0.00 0.00 96 1006.9
20210518085008 18 23 1.6 0.0 0.00 0.00 0.00 96 1007.2
20210518084547 18 24 1.6 0.0 0.00 0.00 0.00 96 1007.2
20210518084040 18 360 0.0 0.0 0.00 0.00 0.00 96 1007.2
20210518083059 18 27 0.0 0.0 0.00 0.00 0.00 96 1007.3
20210518082537 18 15 0.0 0.0 0.00 0.00 0.00 96 1007.3
20210518082049 18 350 0.0 0.0 0.00 0.00 0.00 96 1007.3
20210518081617 18 350 0.0 0.0 0.00 0.00 0.00 97 1007.5
20210518081106 18 343 0.0 0.0 0.00 0.00 0.00 97 1007.5
20210518080554 18 355 0.0 0.0 0.00 0.00 0.00 97 1007.5
20210518080117 18 355 0.0 0.0 0.00 0.00 0.00 97 1007.3
20210518075543 18 5 0.0 0.0 0.00 0.00 0.00 97 1007.3
20210518075041 18 360 1.6 0.0 0.00 0.00 0.00 97 1007.3
20210518074620 18 346 1.6 0.0 0.00 0.00 0.00 97 1007.4
20210518074049 18 5 1.6 0.0 0.00 0.00 0.00 97 1007.4
20210518073551 17 9 0.0 0.0 0.00 0.00 0.00 97 1007.4
20210518073212 17 30 1.6 0.0 0.00 0.00 0.00 97 1007.8
20210518072614 17 350 4.8 0.0 0.00 0.00 0.00 97 1007.8
20210518072005 17 346 4.8 0.0 0.00 0.00 0.00 97 1006.1
20210518071522 17 332 0.0 0.0 0.00 0.00 0.00 96 1006.1
20210518071021 17 355 0.0 0.0 0.00 0.00 0.00 96 1006.1
20210518070510 17 23 0.0 0.0 0.00 0.00 0.00 96 1005.7
20210518070017 17 38 0.0 0.0 0.00 0.00 0.00 96 1005.7
20210518065521 17 42 0.0 0.0 0.00 0.00 0.00 96 1005.7
20210518065031 17 63 0.0 0.0 0.00 0.00 0.00 96 1005.8
20210518064628 17 52 0.0 0.0 0.00 0.00 0.00 96 1005.8
20210518064044 17 64 0.0 0.0 0.00 0.00 0.00 96 1005.8
20210518063542 17 66 0.0 0.0 0.00 0.00 0.00 95 1005.8
20210518063146 17 80 0.0 0.0 0.00 0.00 0.00 95 1006.0
20210518062547 18 95 0.0 0.0 0.00 0.00 0.00 95 1006.0
20210518062052 18 113 0.0 0.0 0.00 0.00 0.00 95 1006.0
20210518061636 18 113 0.0 0.0 0.00 0.00 0.00 94 1006.1
20210518061002 18 113 0.0 0.0 0.00 0.00 0.00 94 1006.1
20210518060205 18 188 0.0 0.0 0.00 0.00 0.00 94 1006.3
20210518055606 18 188 0.0 0.0 0.00 0.00 0.00 94 1006.3
20210518055112 18 188 0.0 0.0 0.00 0.00 0.00 94 1006.3
20210518054004 18 187 0.0 0.0 0.00 0.00 0.00 94 1005.8
20210518053522 18 190 0.0 0.0 0.00 0.00 0.00 94 1005.7
20210518053031 18 213 0.0 0.0 0.00 0.00 0.00 94 1005.7
20210518052522 18 234 0.0 0.0 0.00 0.00 0.00 94 1005.7
20210518052019 18 194 0.0 0.0 0.00 0.00 0.00 94 1005.8
20210518051623 18 161 0.0 0.0 0.00 0.00 0.00 94 1005.8
20210518051043 18 159 0.0 0.0 0.00 0.00 0.00 94 1005.8
20210518050549 18 163 0.0 0.0 0.00 0.00 0.00 94 1005.8
20210518050051 18 155 0.0 0.0 0.00 0.00 0.00 94 1005.8
20210518045521 18 157 0.0 0.0 0.00 0.00 0.00 94 1005.8
20210518045032 18 150 0.0 0.0 0.00 0.00 0.00 93 1005.7
20210518044549 18 134 0.0 0.0 0.00 0.00 0.00 93 1005.7
20210518044043 18 123 0.0 0.0 0.00 0.00 0.00 93 1005.7
20210518043546 18 126 0.0 0.0 0.00 0.00 0.00 93 1005.7
20210518043209 18 127 0.0 0.0 0.00 0.00 0.00 93 1006.1
20210518042553 18 148 0.0 0.0 0.00 0.00 0.00 93 1006.1
20210518042059 18 198 0.0 0.0 0.00 0.00 0.00 93 1006.1
20210518041504 18 198 0.0 0.0 0.00 0.00 0.00 92 1005.8
20210518041034 18 198 0.0 0.0 0.00 0.00 0.00 92 1005.8
20210518040140 19 198 0.0 0.0 0.00 0.00 0.00 92 1004.9
20210518035559 19 198 0.0 0.0 0.00 0.00 0.00 92 1004.9
20210518035059 19 200 0.0 0.0 0.00 0.00 0.00 92 1004.9
20210518034004 19 200 0.0 0.0 0.00 0.00 0.00 92 1004.8
20210518033508 19 196 0.0 0.0 0.00 0.00 0.00 92 1004.3
20210518033104 19 193 0.0 0.0 0.00 0.00 0.00 92 1004.3
20210518032535 19 189 0.0 0.0 0.00 0.00 0.00 92 1004.3
20210518032037 19 200 0.0 0.0 0.00 0.00 0.00 92 1004.3
20210518031606 19 195 0.0 0.0 0.00 0.00 0.00 92 1004.3
20210518031041 19 190 0.0 0.0 0.00 0.00 0.00 92 1004.3
20210518030601 19 195 0.0 0.0 0.00 0.00 0.00 91 1004.3
20210518030112 19 183 0.0 0.0 0.00 0.00 0.00 92 1004.7
20210518025536 19 175 0.0 0.0 0.00 0.00 0.00 92 1004.7
20210518025041 19 188 0.0 0.0 0.00 0.00 0.00 92 1004.7
20210518024621 20 172 0.0 0.0 0.00 0.00 0.00 92 1003.9
20210518024050 20 161 0.0 0.0 0.00 0.00 0.00 92 1003.9
20210518023543 20 152 0.0 0.0 0.00 0.00 0.00 92 1003.9
20210518023124 20 165 0.0 0.0 0.00 0.00 0.00 92 1004.2
20210518022615 20 157 0.0 0.0 0.00 0.00 0.00 92 1004.2
20210518022058 20 158 0.0 0.0 0.00 0.00 0.00 92 1004.2
20210518021717 20 159 0.0 0.0 0.00 0.00 0.00 91 1004.5
20210518021004 20 142 0.0 0.0 0.00 0.00 0.00 91 1004.5
20210518020120 20 136 0.0 0.0 0.00 0.00 0.00 91 1005.2
20210518015553 20 136 0.0 0.0 0.00 0.00 0.00 91 1005.2
20210518015107 20 144 0.0 0.0 0.00 0.00 0.00 91 1005.2
20210518014007 20 126 0.0 0.0 0.00 0.00 0.00 90 1005.2
20210518013515 20 138 0.0 0.0 0.00 0.00 0.00 90 1005.2
20210518013121 20 135 0.0 0.0 0.00 0.00 0.00 89 1005.2
20210518012523 21 123 0.0 0.0 0.00 0.00 0.00 89 1005.2
20210518012017 21 113 0.0 0.0 0.00 0.00 0.00 88 1005.2
20210518011606 21 134 0.0 0.0 0.00 0.00 0.00 88 1005.2
20210518011044 21 122 0.0 0.0 0.00 0.00 0.00 87 1005.2
20210518010546 21 108 0.0 0.0 0.00 0.00 0.00 87 1005.2
20210518010023 21 104 0.0 0.0 0.00 0.00 0.00 86 1005.2
20210518005517 21 109 0.0 0.0 0.00 0.00 0.00 86 1005.2
20210518005037 22 110 1.6 0.0 0.00 0.00 0.00 86 1005.2
20210518004553 22 114 1.6 0.0 0.00 0.00 0.00 86 1005.2
20210518004052 22 120 0.0 0.0 0.00 0.00 0.00 86 1005.2
20210518003545 22 124 0.0 0.0 0.00 0.00 0.00 86 1005.2
20210518003136 22 121 0.0 0.0 0.00 0.00 0.00 86 1005.2
20210518002557 22 116 0.0 0.0 0.00 0.00 0.00 86 1005.2
20210518002059 22 107 0.0 0.0 0.00 0.00 0.00 86 1005.2
20210518001501 22 108 0.0 0.0 0.00 0.00 0.00 87 1005.3
20210518001016 22 107 0.0 0.0 0.00 0.00 0.00 87 1005.3
20210518000115 22 72 0.0 0.0 0.00 0.00 0.00 87 1005.6
20210517234554 22 74 0.0 0.0 0.00 0.00 0.00 88 1004.9
20210517234045 22 73 0.0 0.0 0.00 0.00 0.00 88 1004.9
20210517233547 22 76 0.0 0.0 0.00 0.00 0.00 88 1004.9
20210517233140 22 20 0.0 0.0 0.00 0.00 0.00 89 1004.7
20210517232601 22 13 0.0 0.0 0.00 0.00 0.00 89 1004.7
20210517232100 22 121 0.0 0.0 0.00 0.00 0.00 89 1004.7
20210517230146 22 119 4.8 0.0 0.00 0.00 0.00 90 1003.2
20210517225559 22 150 3.2 0.0 0.00 0.00 0.00 90 1003.2
20210517225011 22 136 3.2 0.0 0.00 0.00 0.00 90 1002.8
20210517224515 22 128 6.4 0.0 0.00 0.00 0.00 91 1002.8
20210517224030 22 118 8.0 0.0 0.00 0.00 0.00 91 1002.8
20210517223527 22 113 9.7 0.0 0.00 0.00 0.00 91 1002.6
20210517223145 22 124 11.3 0.0 0.00 0.00 0.00 91 1002.6
20210517222535 22 149 11.3 0.0 0.00 0.00 0.00 91 1002.6
20210517222046 22 112 9.7 0.0 0.00 0.00 0.00 91 1002.6
20210517221652 22 109 9.7 0.0 0.00 0.00 0.00 89 1002.0
20210517221105 22 96 14.5 0.0 0.00 0.00 0.00 87 1002.0
20210517220551 22 86 17.7 0.0 0.00 0.00 0.00 87 1002.0
20210517220137 22 103 12.9 0.0 0.00 0.00 0.00 87 1002.2
20210517215535 21 92 9.7 0.0 0.00 0.00 0.00 87 1002.2
20210517215039 21 86 9.7 0.0 0.00 0.00 0.00 88 1002.2
20210517214639 21 101 16.1 0.0 0.00 0.00 0.00 89 1002.0
20210517214047 21 105 16.1 0.0 0.00 0.00 0.00 89 1002.0
20210517213553 21 76 12.9 0.0 0.00 0.00 0.00 89 1002.0
20210517213128 21 93 11.3 0.0 0.00 0.00 0.00 90 1001.6
20210517212002 22 95 1.6 0.0 0.00 0.00 0.00 83 1002.1
20210517211519 22 84 1.6 0.0 0.00 0.00 0.00 82 1002.1
20210517211013 21 47 0.0 0.0 0.00 0.00 0.00 83 1002.1
20210517210001 21 82 11.3 0.0 0.00 0.00 0.00 88 1003.1
20210517205505 21 67 14.5 0.0 0.00 0.00 0.00 90 1003.1
20210517205019 21 61 4.8 0.0 0.00 0.00 0.00 92 1005.5